Regional Weather Roundup
Issued by NWS

Home | Current Version | Previous Version | Graphics & Text | Print | Product List | Glossary On
Versions: 1 2 3 4 5 6 7 8 9 10 11 12 13 14 15 16 17 18 19 20 21 22 23 24 25 26 27 28 29 30 31 32 33 34 35 36 37 38 39 40 41 42 43 44 45 46 47 48 49 50
000
ASUS45 KBOI 091710
RWRID

IDAHO REGIONAL WEATHER ROUNDUP
NATIONAL WEATHER SERVICE BOISE ID
1000 AM MST TUE FEB 09 2016

NOTE: "FAIR" INDICATES FEW OR NO CLOUDS BELOW 12000 FEET
WITH NO SIGNIFICANT WEATHER AND/OR OBSTRUCTIONS TO VISIBILITY

IDZ012-014-091800-
SOUTHWEST IDAHO


CITY           SKY/WX    TMP DP  RH WIND       PRES   REMARKS
BOISE          CLOUDY    30  25  81 SE9       30.60S WCI  22
CALDWELL       NOT AVBL
MOUNTAIN HOME  CLOUDY    28  27  93 SE16      30.60S FOG     WCI  17
$$

IDZ016-017-091800-
SOUTHCENTRAL IDAHO


CITY           SKY/WX    TMP DP  RH WIND       PRES   REMARKS
BURLEY         CLOUDY    26  25  96 E12       30.56S FOG     WCI  16
JEROME         MOSUNNY   22  19  89 NE15      30.56S WCI   9
TWIN FALLS     FOG       29  27  92 E8        30.56R VSB 1/4 WCI  21
$$

IDZ019>023-091800-
SOUTHEAST IDAHO


CITY           SKY/WX    TMP DP  RH WIND       PRES   REMARKS
IDAHO FALLS    CLOUDY    13  12  96 N3        30.61R FOG
POCATELLO      FOG       22  20  92 NE9       30.61S VSB 1   WCI  12
REXBURG        CLOUDY    20  19  96 CALM      30.60S
$$

IDZ006-010-011-018-031-032-091800-
CENTRAL IDAHO MOUNTAINS


CITY           SKY/WX    TMP DP  RH WIND       PRES   REMARKS
MCCALL         FOG       20  18  92 CALM      30.49F VSB 1/2
HAILEY         SUNNY     28  19  69 NW9       30.56S WCI  20
STANLEY          N/A     18  12  77 E5        30.60F WCI  11
SALMON         CLOUDY    10  10 100 CALM      30.65F
CHALLIS        CLOUDY    11   9  92 CALM      30.61S FOG
$$

IDZ002-004-006-007-026-091800-
NORTHERN IDAHO


CITY           SKY/WX    TMP DP  RH WIND       PRES   REMARKS
LEWISTON       SUNNY     44  35  70 E6        30.43S
LOWELL           N/A     36  33  89 N3        30.54F
COEUR D`ALENE  CLOUDY    34  30  86 NE16      30.43F WCI  23
MULLAN PASS    SUNNY     42  30  62 SW5       30.43S
$$




USA.gov is the U.S. government's official web portal to all federal, state and local government web resources and services.